カタログに戻る

LEO 1

運用中通信PO
NORAD 43113·PAYLOAD·🇺🇸 United States

打ち上げ Jan 12, 2018 から Satish Dhawan Space Centre

Loading…

次のパス (今後24時間)

TLE

最新Source: Space-Track

元期: Sep 14, 2026, 12:47 UTC

1 43113U 18004C   26257.53328226  .00001600  00000-0  11489-3 0  9991
2 43113  99.2411 187.5241 0348735 164.9178 196.2749 14.68268711450599

AllMySatでLEO 1をリアルタイム追跡

Download on the App Store